星链-31807 (STARLINK-31807 )

导读

STARLINK-31807是由美国于2024年5月3日08:00发射的星链系列卫星,归属SpaceX的星链互联网星座项目,该项目旨在构建全球卫星互联网星座,为全球不同地区提供高速低延迟的宽带互联网服务,此卫星入轨后将进一步扩充星链星座的规模,提升星座覆盖范围与服务能力。

Basic Information
目录编号:
59639
目录名称:
STARLINK-31807
国际标识:
2024-082J
轨道中心:
EARTH
卫星名称:
星链-31807
卫星全名:
星链-31807 (STARLINK-31807 )
卫星状态:
在轨 (已飞行855 天)
发射日期:
2024-05-03 UTC
国别 :
美国 (US)
星等 :
--
Orbit Information
数据来源 国际轨道数据 AOE轨道数据
星历时间 2026-09-05T14:34:47+0800
5小时前
查看轨道信息
2026-09-04T00:00:00+0800
1天前
查看轨道信息
半长轴 6861.19km 6861.164km
偏心率 0.0001147 0.0001372
轨道倾角 43.003° 42.997°
近地点辐角 288.845° 173.715°
升交点赤经 205.906° 214.986°
平近点角 71.228° 335.997°
近地点 482.266km 482.085km
远地点 483.84km 483.969km
周期 94.267分钟 94.266分钟
每日圈数 15.275787 15.275877
Detailed Information
固有亮度:
5
最大亮度:
1.5
卫星平台:
Starlink v2.0 mini
覆盖范围:
全球
运营商:
太空探索技术公司
运营商所在国:
美国
制造商(研发单位):
太空探索技术公司
制造商所在国:
美国
使用方式:
暂无
Satellite Introduction
星链(Starlink)计划是由太空探索技术公司(SpaceX)提出的一个巨型低轨卫星互联网星座项目,计划在2019年至2024年间在太空搭建由约1.2万颗卫星组成的“星链”网络,其中1584颗将部署在地球上空550千米处的近地轨道,并从2020年开始工作。该卫星仍在工作。
2D Orbit Map
3D Orbit Map
Orbit Altitude Analysis Chart
Orbit Inclination Analysis Chart
Orbit Comprehensive Analysis Chart
View Comprehensive Chart
Conjunction Data List
Event ID Objects TCA Miss Dist (km) Collision Risk Probability Collision Risk Index (CRI) Action
CDM_260907-072705-963906-377321
2026-09-07T
07:27:01+0000
1.109 km
极远距离
1.192182E-5 中风险 0.57
CDM_260907-055205-963906-377321
2026-09-07T
05:52:51+0000
2.481 km
极远距离
1.209945E-6 低风险 0.37